| time (UTC) | temp F | wind direction | speed MPH | gust MPH | rain 1hr in | rain 24hr in | rain mn in | humidity % | barometer mb |
| 20260504050732 | 50 | 241 | 0.0 | 0.0 | 0.00 | 0.00 | 0.00 | 51 | 1006.8 |
| 20260504050229 | 51 | 245 | 0.0 | 0.0 | 0.00 | 0.00 | 0.00 | 52 | 1006.8 |
| 20260504045726 | 51 | 259 | 0.0 | 0.0 | 0.00 | 0.00 | 0.00 | 52 | 1007.1 |
| 20260504045221 | 51 | 220 | 0.0 | 0.0 | 0.00 | 0.00 | 0.00 | 51 | 1007.1 |
| 20260504044719 | 50 | 231 | 0.0 | 0.0 | 0.00 | 0.00 | 0.00 | 53 | 1006.8 |
| 20260504044216 | 50 | 158 | 0.0 | 0.0 | 0.00 | 0.00 | 0.00 | 53 | 1006.8 |
| 20260504043713 | 50 | 229 | 0.0 | 0.0 | 0.00 | 0.00 | 0.00 | 53 | 1006.8 |
| 20260504043210 | 50 | 261 | 0.0 | 0.0 | 0.00 | 0.00 | 0.00 | 54 | 1006.8 |
| 20260504042708 | 50 | 262 | 0.0 | 0.0 | 0.00 | 0.00 | 0.00 | 54 | 1007.3 |
| 20260504042204 | 50 | 296 | 0.0 | 0.0 | 0.00 | 0.00 | 0.00 | 55 | 1007.3 |
| 20260504041700 | 50 | 239 | 0.0 | 0.0 | 0.00 | 0.00 | 0.00 | 55 | 1007.1 |
| 20260504041155 | 50 | 272 | 0.0 | 0.0 | 0.00 | 0.00 | 0.00 | 56 | 1007.3 |
| 20260504040653 | 50 | 197 | 0.0 | 0.0 | 0.00 | 0.00 | 0.00 | 57 | 1007.1 |
| 20260504040150 | 51 | 248 | 0.0 | 0.0 | 0.00 | 0.00 | 0.00 | 55 | 1007.3 |
| 20260504035646 | 51 | 271 | 0.0 | 0.0 | 0.00 | 0.00 | 0.00 | 55 | 1007.3 |
| 20260504035143 | 51 | 275 | 0.0 | 0.0 | 0.00 | 0.00 | 0.00 | 56 | 1007.3 |
| 20260504034641 | 51 | 253 | 0.0 | 0.0 | 0.00 | 0.00 | 0.00 | 56 | 1007.3 |
| 20260504034138 | 51 | 253 | 0.0 | 0.0 | 0.00 | 0.00 | 0.00 | 57 | 1007.3 |
| 20260504033635 | 51 | 278 | 0.0 | 0.0 | 0.00 | 0.00 | 0.00 | 57 | 1007.3 |
| 20260504033133 | 50 | 267 | 0.0 | 0.0 | 0.00 | 0.00 | 0.00 | 60 | 1007.2 |
| 20260504032629 | 50 | 278 | 0.0 | 0.0 | 0.00 | 0.00 | 0.00 | 60 | 1007.1 |
| 20260504032126 | 51 | 244 | 0.0 | 0.0 | 0.00 | 0.00 | 0.00 | 59 | 1007.3 |
| 20260504031624 | 51 | 232 | 0.0 | 0.0 | 0.00 | 0.00 | 0.00 | 59 | 1007.0 |
| 20260504031120 | 51 | 238 | 0.0 | 0.0 | 0.00 | 0.00 | 0.00 | 59 | 1007.4 |
| 20260504030617 | 50 | 265 | 0.0 | 0.0 | 0.00 | 0.00 | 0.00 | 60 | 1007.5 |
| 20260504030113 | 50 | 266 | 0.0 | 0.0 | 0.00 | 0.00 | 0.00 | 60 | 1007.3 |
| 20260504025610 | 50 | 288 | 0.0 | 0.0 | 0.00 | 0.00 | 0.00 | 61 | 1007.7 |
| 20260504025107 | 50 | 245 | 0.0 | 0.0 | 0.00 | 0.00 | 0.00 | 61 | 1007.8 |
| 20260504024604 | 50 | 250 | 0.0 | 0.0 | 0.00 | 0.00 | 0.00 | 62 | 1007.3 |
| 20260504024101 | 51 | 282 | 0.0 | 0.0 | 0.00 | 0.00 | 0.00 | 61 | 1007.5 |
| 20260504023557 | 50 | 230 | 0.0 | 0.0 | 0.00 | 0.00 | 0.00 | 61 | 1007.5 |
| 20260504023053 | 51 | 236 | 0.0 | 0.0 | 0.00 | 0.00 | 0.00 | 61 | 1007.4 |
| 20260504022550 | 51 | 248 | 0.0 | 0.0 | 0.00 | 0.00 | 0.00 | 61 | 1007.2 |
| 20260504022046 | 51 | 166 | 0.0 | 0.0 | 0.00 | 0.00 | 0.00 | 61 | 1007.2 |
| 20260504021543 | 52 | 259 | 0.0 | 0.0 | 0.00 | 0.00 | 0.00 | 60 | 1007.4 |
| 20260504021040 | 53 | 298 | 0.0 | 0.0 | 0.00 | 0.00 | 0.00 | 59 | 1007.7 |
| 20260504020537 | 53 | 268 | 0.0 | 0.0 | 0.00 | 0.00 | 0.00 | 58 | 1007.4 |
| 20260504020034 | 54 | 254 | 0.0 | 0.0 | 0.00 | 0.00 | 0.00 | 57 | 1007.2 |
| 20260504015530 | 54 | 253 | 0.0 | 0.0 | 0.00 | 0.00 | 0.00 | 56 | 1007.5 |
| 20260504015026 | 55 | 200 | 0.0 | 0.0 | 0.00 | 0.00 | 0.00 | 56 | 1007.7 |
| 20260504014522 | 59 | 187 | 0.0 | 0.0 | 0.00 | 0.00 | 0.00 | 51 | 1007.5 |
| 20260504014020 | 60 | 37 | 0.0 | 0.0 | 0.00 | 0.00 | 0.00 | 46 | 1007.5 |
| 20260504013518 | 60 | 341 | 0.0 | 0.0 | 0.00 | 0.00 | 0.00 | 44 | 1007.4 |
| 20260504013014 | 61 | 349 | 0.0 | 0.0 | 0.00 | 0.00 | 0.00 | 45 | 1007.5 |
| 20260504012512 | 62 | 335 | 0.0 | 0.0 | 0.00 | 0.00 | 0.00 | 44 | 1007.5 |
| 20260504012010 | 62 | 348 | 0.0 | 0.0 | 0.00 | 0.00 | 0.00 | 42 | 1007.7 |
| 20260504011506 | 62 | 358 | 0.0 | 0.0 | 0.00 | 0.00 | 0.00 | 42 | 1007.8 |
| 20260504011001 | 62 | 344 | 0.0 | 0.0 | 0.00 | 0.00 | 0.00 | 42 | 1007.7 |
| 20260504010458 | 62 | 336 | 0.0 | 2.0 | 0.00 | 0.00 | 0.00 | 41 | 1007.5 |
| 20260504005953 | 62 | 1 | 1.0 | 2.0 | 0.00 | 0.00 | 0.00 | 41 | 1007.9 |
| 20260504005451 | 63 | 355 | 0.0 | 2.0 | 0.00 | 0.00 | 0.00 | 41 | 1007.8 |
| 20260504004948 | 63 | 16 | 4.0 | 6.0 | 0.00 | 0.00 | 0.00 | 41 | 1007.9 |
| 20260504004446 | 63 | 336 | 0.0 | 0.0 | 0.00 | 0.00 | 0.00 | 42 | 1008.2 |
| 20260504003943 | 63 | 302 | 0.0 | 0.0 | 0.00 | 0.00 | 0.00 | 41 | 1008.0 |
| 20260504003439 | 63 | 348 | 1.0 | 2.0 | 0.00 | 0.00 | 0.00 | 40 | 1007.8 |
| 20260504002935 | 63 | 334 | 1.0 | 2.0 | 0.00 | 0.00 | 0.00 | 41 | 1008.1 |
| 20260504002433 | 63 | 1 | 4.0 | 6.0 | 0.00 | 0.00 | 0.00 | 40 | 1008.1 |
| 20260504001930 | 63 | 19 | 1.0 | 2.0 | 0.00 | 0.00 | 0.00 | 41 | 1008.1 |
| 20260504001427 | 63 | 348 | 3.0 | 6.0 | 0.00 | 0.00 | 0.00 | 42 | 1007.9 |
| 20260504000924 | 64 | 355 | 3.0 | 3.0 | 0.00 | 0.00 | 0.00 | 42 | 1008.0 |
| 20260504000423 | 64 | 347 | 0.0 | 0.0 | 0.00 | 0.00 | 0.00 | 43 | 1008.1 |
| 20260503235918 | 64 | 358 | 2.0 | 5.0 | 0.00 | 0.00 | 0.00 | 44 | 1008.4 |
| 20260503235416 | 64 | 307 | 6.0 | 8.0 | 0.00 | 0.00 | 0.00 | 42 | 1008.5 |
| 20260503234913 | 64 | 352 | 9.0 | 13.0 | 0.00 | 0.00 | 0.00 | 44 | 1008.4 |
| 20260503234411 | 63 | 356 | 5.0 | 7.0 | 0.00 | 0.00 | 0.00 | 45 | 1008.6 |
| 20260503233909 | 63 | 252 | 3.0 | 6.0 | 0.00 | 0.00 | 0.00 | 47 | 1008.4 |
| 20260503233405 | 63 | 345 | 9.0 | 10.0 | 0.00 | 0.00 | 0.00 | 47 | 1008.4 |
| 20260503232901 | 63 | 352 | 4.0 | 6.0 | 0.00 | 0.00 | 0.00 | 48 | 1008.6 |
| 20260503232358 | 64 | 330 | 11.0 | 13.0 | 0.00 | 0.00 | 0.00 | 47 | 1008.6 |
| 20260503231856 | 64 | 318 | 0.0 | 0.0 | 0.00 | 0.00 | 0.00 | 49 | 1008.5 |
| 20260503231353 | 64 | 23 | 10.0 | 11.0 | 0.00 | 0.00 | 0.00 | 48 | 1008.6 |
| 20260503230849 | 64 | 1 | 4.0 | 6.0 | 0.00 | 0.00 | 0.00 | 50 | 1008.6 |
| 20260503230346 | 63 | 9 | 8.0 | 11.0 | 0.00 | 0.00 | 0.00 | 50 | 1008.7 |
| 20260503225844 | 64 | 336 | 6.0 | 7.0 | 0.00 | 0.00 | 0.00 | 50 | 1008.7 |
| 20260503225339 | 63 | 11 | 1.0 | 2.0 | 0.00 | 0.00 | 0.00 | 50 | 1008.8 |
| 20260503224836 | 64 | 6 | 1.0 | 2.0 | 0.00 | 0.00 | 0.00 | 51 | 1009.1 |
| 20260503224333 | 63 | 4 | 5.0 | 8.0 | 0.00 | 0.00 | 0.00 | 50 | 1008.9 |
| 20260503223831 | 64 | 9 | 0.0 | 1.0 | 0.00 | 0.00 | 0.00 | 50 | 1009.1 |
| 20260503223328 | 63 | 57 | 0.0 | 0.0 | 0.00 | 0.00 | 0.00 | 52 | 1008.9 |
| 20260503222824 | 63 | 335 | 4.0 | 8.0 | 0.00 | 0.00 | 0.00 | 52 | 1008.9 |
| 20260503222323 | 63 | 27 | 3.0 | 6.0 | 0.00 | 0.00 | 0.00 | 49 | 1008.9 |
| 20260503221820 | 64 | 9 | 5.0 | 8.0 | 0.00 | 0.00 | 0.00 | 50 | 1009.1 |
| 20260503221319 | 64 | 331 | 6.0 | 8.0 | 0.00 | 0.00 | 0.00 | 49 | 1009.1 |
| 20260503220815 | 63 | 50 | 8.0 | 14.0 | 0.00 | 0.00 | 0.00 | 48 | 1009.1 |
| 20260503220312 | 63 | 47 | 1.0 | 3.0 | 0.00 | 0.00 | 0.00 | 50 | 1009.4 |
| 20260503215808 | 63 | 17 | 3.0 | 5.0 | 0.00 | 0.00 | 0.00 | 51 | 1009.2 |
| 20260503215305 | 63 | 3 | 3.0 | 5.0 | 0.00 | 0.00 | 0.00 | 50 | 1009.3 |
| 20260503214803 | 63 | 356 | 5.0 | 7.0 | 0.00 | 0.00 | 0.00 | 49 | 1009.5 |
| 20260503214300 | 63 | 73 | 0.0 | 0.0 | 0.00 | 0.00 | 0.00 | 48 | 1009.6 |
| 20260503213758 | 63 | 336 | 3.0 | 6.0 | 0.00 | 0.00 | 0.00 | 51 | 1010.0 |
| 20260503213255 | 63 | 6 | 5.0 | 6.0 | 0.00 | 0.00 | 0.00 | 50 | 1009.9 |
| 20260503212752 | 63 | 261 | 5.0 | 8.0 | 0.00 | 0.00 | 0.00 | 48 | 1009.9 |
| 20260503212250 | 62 | 277 | 0.0 | 0.0 | 0.00 | 0.00 | 0.00 | 50 | 1010.3 |
| 20260503211747 | 63 | 17 | 0.0 | 0.0 | 0.00 | 0.00 | 0.00 | 52 | 1010.1 |
| 20260503211243 | 61 | 308 | 2.0 | 6.0 | 0.00 | 0.00 | 0.00 | 50 | 1010.3 |
| 20260503210738 | 61 | 354 | 0.0 | 0.0 | 0.00 | 0.00 | 0.00 | 52 | 1010.6 |
| 20260503210236 | 60 | 258 | 0.0 | 1.0 | 0.00 | 0.00 | 0.00 | 52 | 1010.4 |
| 20260503205731 | 60 | 256 | 2.0 | 3.0 | 0.00 | 0.00 | 0.00 | 51 | 1010.6 |
| 20260503205228 | 58 | 246 | 3.0 | 7.0 | 0.00 | 0.00 | 0.00 | 55 | 1010.9 |
| 20260503204724 | 57 | 272 | 3.0 | 5.0 | 0.00 | 0.00 | 0.00 | 60 | 1010.9 |
| 20260503204222 | 55 | 277 | 4.0 | 6.0 | 0.00 | 0.00 | 0.00 | 61 | 1011.3 |
| 20260503203719 | 56 | 290 | 1.0 | 3.0 | 0.00 | 0.00 | 0.00 | 62 | 1011.3 |
| 20260503203217 | 55 | 271 | 8.0 | 11.0 | 0.00 | 0.00 | 0.00 | 61 | 1011.5 |
| 20260503202714 | 56 | 237 | 1.0 | 2.0 | 0.00 | 0.00 | 0.00 | 61 | 1011.4 |
| 20260503202212 | 55 | 241 | 7.0 | 14.0 | 0.00 | 0.00 | 0.00 | 63 | 1011.5 |
| 20260503201709 | 59 | 265 | 6.0 | 14.0 | 0.00 | 0.00 | 0.00 | 55 | 1011.6 |
| 20260503201206 | 59 | 327 | 5.0 | 7.0 | 0.00 | 0.00 | 0.00 | 53 | 1011.3 |
| 20260503200703 | 59 | 359 | 5.0 | 7.0 | 0.00 | 0.00 | 0.00 | 53 | 1010.9 |
| 20260503200159 | 63 | 12 | 3.0 | 5.0 | 0.00 | 0.00 | 0.00 | 50 | 1011.4 |
| 20260503195656 | 62 | 343 | 0.0 | 1.0 | 0.00 | 0.00 | 0.00 | 53 | 1011.4 |
| 20260503195153 | 61 | 359 | 0.0 | 0.0 | 0.00 | 0.00 | 0.00 | 50 | 1011.4 |
| 20260503194650 | 61 | 127 | 0.0 | 0.0 | 0.00 | 0.00 | 0.00 | 46 | 1011.5 |
| 20260503194145 | 60 | 269 | 0.0 | 0.0 | 0.00 | 0.00 | 0.00 | 52 | 1011.5 |
| 20260503193642 | 60 | 254 | 0.0 | 0.0 | 0.00 | 0.00 | 0.00 | 51 | 1011.6 |
| 20260503193138 | 60 | 337 | 0.0 | 1.0 | 0.00 | 0.00 | 0.00 | 52 | 1011.6 |
| 20260503192633 | 60 | 312 | 3.0 | 5.0 | 0.00 | 0.00 | 0.00 | 51 | 1011.8 |
| 20260503192129 | 61 | 3 | 5.0 | 8.0 | 0.00 | 0.00 | 0.00 | 51 | 1011.6 |
| 20260503191626 | 62 | 28 | 1.0 | 2.0 | 0.00 | 0.00 | 0.00 | 48 | 1011.6 |
| 20260503191124 | 61 | 22 | 5.0 | 9.0 | 0.00 | 0.00 | 0.00 | 50 | 1011.5 |
| 20260503190620 | 62 | 33 | 7.0 | 9.0 | 0.00 | 0.00 | 0.00 | 49 | 1011.7 |
| 20260503190117 | 60 | 0 | 3.0 | 6.0 | 0.00 | 0.00 | 0.00 | 51 | 1011.7 |
| 20260503185614 | 60 | 15 | 4.0 | 5.0 | 0.00 | 0.00 | 0.00 | 48 | 1011.7 |
| 20260503185114 | 59 | 40 | 0.0 | 0.0 | 0.00 | 0.00 | 0.00 | 50 | 1011.8 |
| 20260503184610 | 59 | 27 | 3.0 | 6.0 | 0.00 | 0.00 | 0.00 | 50 | 1012.0 |
| 20260503184106 | 60 | 79 | 0.0 | 0.0 | 0.00 | 0.00 | 0.00 | 52 | 1011.8 |
| 20260503183603 | 62 | 125 | 0.0 | 0.0 | 0.00 | 0.00 | 0.00 | 52 | 1012.0 |
| 20260503183100 | 61 | 109 | 0.0 | 0.0 | 0.00 | 0.00 | 0.00 | 47 | 1012.0 |
| 20260503182559 | 61 | 66 | 0.0 | 0.0 | 0.00 | 0.00 | 0.00 | 54 | 1012.0 |
| 20260503182056 | 60 | 107 | 3.0 | 6.0 | 0.00 | 0.00 | 0.00 | 55 | 1012.5 |
| 20260503181553 | 60 | 148 | 0.0 | 2.0 | 0.00 | 0.00 | 0.00 | 55 | 1012.1 |
| 20260503181049 | 61 | 131 | 1.0 | 7.0 | 0.00 | 0.00 | 0.00 | 58 | 1012.2 |
| 20260503180547 | 59 | 115 | 0.0 | 1.0 | 0.00 | 0.00 | 0.00 | 55 | 1012.5 |
| 20260503180044 | 60 | 150 | 3.0 | 5.0 | 0.00 | 0.00 | 0.00 | 53 | 1012.5 |
| 20260503175541 | 59 | 133 | 0.0 | 0.0 | 0.00 | 0.00 | 0.00 | 54 | 1012.8 |
| 20260503175038 | 58 | 110 | 3.0 | 5.0 | 0.00 | 0.00 | 0.00 | 57 | 1012.9 |
| 20260503174536 | 61 | 131 | 0.0 | 1.0 | 0.00 | 0.00 | 0.00 | 56 | 1012.8 |
| 20260503174032 | 61 | 107 | 0.0 | 0.0 | 0.00 | 0.00 | 0.00 | 55 | 1012.7 |
| 20260503173527 | 59 | 104 | 0.0 | 0.0 | 0.00 | 0.00 | 0.00 | 55 | 1013.0 |
| 20260503173023 | 58 | 128 | 0.0 | 0.0 | 0.00 | 0.00 | 0.00 | 56 | 1012.9 |
| 20260503172521 | 59 | 129 | 0.0 | 0.0 | 0.00 | 0.00 | 0.00 | 59 | 1013.0 |
| 20260503172018 | 58 | 130 | 0.0 | 0.0 | 0.00 | 0.00 | 0.00 | 59 | 1012.7 |
| 20260503171514 | 57 | 111 | 0.0 | 0.0 | 0.00 | 0.00 | 0.00 | 61 | 1013.0 |
| 20260503171012 | 57 | 112 | 0.0 | 0.0 | 0.00 | 0.00 | 0.00 | 62 | 1013.0 |
| 20260503170508 | 58 | 121 | 0.0 | 0.0 | 0.00 | 0.00 | 0.00 | 62 | 1012.8 |
| 20260503150900 | 56 | 107 | 0.0 | 0.0 | 0.00 | 0.00 | 0.00 | 59 | 1013.4 |
| 20260503150356 | 55 | 116 | 0.0 | 0.0 | 0.00 | 0.00 | 0.00 | 60 | 1013.4 |
| 20260503131250 | 49 | 202 | 0.0 | 0.0 | 0.00 | 0.00 | 0.00 | 67 | 1014.0 |
| 20260503130748 | 48 | 172 | 0.0 | 0.0 | 0.00 | 0.00 | 0.00 | 67 | 1013.8 |
| 20260503130245 | 47 | 171 | 0.0 | 0.0 | 0.00 | 0.00 | 0.00 | 68 | 1014.2 |
| 20260503120211 | 44 | 216 | 0.0 | 0.0 | 0.00 | 0.00 | 0.00 | 73 | 1013.8 |
| 20260503110638 | 44 | 197 | 0.0 | 0.0 | 0.00 | 0.00 | 0.00 | 72 | 1014.5 |
| 20260503110136 | 43 | 221 | 0.0 | 0.0 | 0.00 | 0.00 | 0.00 | 73 | 1014.5 |
| 20260503081451 | 45 | 248 | 0.0 | 0.0 | 0.00 | 0.00 | 0.00 | 69 | 1015.0 |
| 20260503080949 | 44 | 147 | 0.0 | 0.0 | 0.00 | 0.00 | 0.00 | 71 | 1014.7 |
| 20260503080445 | 43 | 233 | 0.0 | 0.0 | 0.00 | 0.00 | 0.00 | 73 | 1014.7 |
| 20260503072921 | 46 | 218 | 0.0 | 0.0 | 0.00 | 0.00 | 0.00 | 67 | 1014.6 |
| 20260503072419 | 46 | 219 | 0.0 | 0.0 | 0.00 | 0.00 | 0.00 | 67 | 1014.5 |
| 20260503071916 | 47 | 213 | 0.0 | 0.0 | 0.00 | 0.00 | 0.00 | 66 | 1014.7 |
| 20260503071413 | 46 | 207 | 0.0 | 0.0 | 0.00 | 0.00 | 0.00 | 68 | 1014.6 |
| 20260503070908 | 46 | 192 | 0.0 | 0.0 | 0.00 | 0.00 | 0.00 | 67 | 1014.4 |
| 20260503070406 | 46 | 215 | 0.0 | 0.0 | 0.00 | 0.00 | 0.00 | 67 | 1014.4 |